Location: Columbus
(29.5618°N, 96.6770°W)
Time: 08:15:14
(UTC-05:00)

Daily predictions for brighter satellites

Satellite Brightness Start Highest point End
(mag) Time Altitude Azimuth Time Altitude Azimuth Time Altitude Azimuth
ATLAS 3B CENTAUR R/B 4.3 19:30:32 10° SW 19:38:14 58° SSE 19:59:54 10° E
Cosmos 1842 4.1 19:42:00 10° NNW 19:45:53 58° W 19:49:43 10° S
Cosmos 2292 Rocket 4.3 19:42:33 10° SSW 19:46:05 45° W 19:49:04 10° N
H-2A R/B 4.3 19:44:25 10° ESE 19:46:45 16° ENE 19:49:06 10° NNE
Cosmos 1709 Rocket 4.0 19:41:16 10° S 19:47:34 77° E 19:53:57 10° N
Cosmos 468 Rocket 4.5 19:46:55 10° SSW 19:52:03 66° WNW 19:57:16 10° N
Cosmos 841 Rocket 3.7 19:47:36 10° S 19:52:28 45° ESE 19:57:21 10° NNE
Meteor 2-5 Rocket 4.5 19:50:36 10° NNE 19:55:45 32° ENE 20:00:46 10° SE
Cosmos 1937 Rocket 4.1 19:55:46 10° N 20:00:39 37° ENE 20:05:28 10° SE
USA 229 DEB 4.1 19:54:43 10° NNW 20:01:41 49° ENE 20:08:44 10° SE
USA 229 4.1 19:54:49 10° NNW 20:01:47 48° ENE 20:08:48 10° SE
COSMOS 2406 3.7 19:58:07 10° SSE 20:03:15 36° ESE 20:08:24 10° NE
ATLAS CENTAUR R/B 4.2 19:52:39 10° NNW 20:03:36 29° NNE 20:07:50 13° E
Cosmos 304 Rocket 3.9 19:59:43 10° S 20:04:20 53° ESE 20:09:00 10° NNE
Cosmos 2084 3.8 20:00:15 10° SW 20:04:25 63° WNW 20:08:22 10° NNE
FENGYUN 3A 3.6 19:59:48 10° SSE 20:05:05 66° ENE 20:10:24 10° N
Resurs 01 Rocket 3.4 20:04:18 12° E 20:05:10 13° ENE 20:07:02 10° NE
FALCON 9 R/B 1.9 20:07:11 10° WNW 20:09:42 42° N 20:14:19 12° ENE
Centaur D AC-29 3.2 19:44:32 10° WSW 20:10:14 52° S 20:14:24 16° ESE
SWIFT 4.3 20:07:24 10° SW 20:10:30 20° S 20:13:36 10° SE
Tiangong 2 2.1 20:08:14 10° WNW 20:11:18 42° SW 20:14:17 10° SE
Cosmos 1707 3.0 20:07:40 10° N 20:11:28 47° E 20:15:15 10° SSE
Cosmos 1763 Rocket 3.6 20:08:28 10° SSW 20:13:31 77° WNW 20:18:39 10° NNE
Cosmos 2184 Rocket 4.2 20:08:43 10° SSE 20:14:41 48° E 20:20:43 10° NNE
Cosmos 2228 2.9 20:10:46 10° S 20:15:07 72° E 20:19:27 10° N
BREEZE-M DEB (TANK) 3.5 20:13:35 10° SSW 20:16:23 20° SE 20:16:45 19° SE
Cosmos 2369 Rocket 2.8 20:11:16 10° NNW 20:16:48 60° WSW 20:22:17 10° S
Cosmos 540 Rocket 3.9 20:12:23 10° SSE 20:16:59 35° E 20:21:36 10° NE
NOAA 12 4.4 20:14:24 10° S 20:19:37 72° WSW 20:24:51 10° NNW
ALOS 2.5 20:17:22 10° S 20:22:00 74° WSW 20:26:40 10° NNW
Cosmos 2058 Rocket 3.1 20:18:33 10° S 20:22:53 82° W 20:27:16 10° N
BREEZE-M (TANK) 4.3 20:12:05 10° NW 20:24:02 37° NNE 20:26:38 20° ENE
Cosmos 909 Rocket 4.4 20:17:10 10° NNW 20:25:21 67° ENE 20:31:56 10° SE
Cosmos 1953 Rocket 3.6 20:24:56 10° N 20:29:16 79° W 20:33:33 10° S
FREGAT/IRIS 2.6 20:26:39 10° S 20:29:39 84° WSW 20:32:42 10° NNW
Cosmos 1340 Rocket 3.3 20:27:24 10° NNW 20:31:26 64° W 20:35:28 10° S
Milstar 3 Cent rocket 2.3 20:26:34 10° WSW 20:31:53 47° SSE 20:34:03 27° ESE
Cosmos 1544 3.3 20:30:03 10° SSE 20:33:29 43° E 20:36:56 10° NNE
Cosmos 1378 3.1 20:30:27 10° N 20:34:14 89° WSW 20:37:59 10° S
Cosmos 2327 Rocket 4.4 20:31:15 10° S 20:37:21 69° E 20:43:25 10° N
Spot 2 Rocket 4.3 20:38:59 28° E 20:39:30 29° ENE 20:43:47 10° NNE
Cosmos 836 Rocket 4.4 20:36:57 10° S 20:42:13 73° ESE 20:47:29 10° NNE
CZ-2D R/B 3.6 20:42:36 41° ENE 20:42:36 41° ENE 20:46:09 10° N
TIMED 4.4 20:39:29 10° NNW 20:43:51 87° WSW 20:47:21 16° SSE
EXPRESS MD2 4.5 20:42:30 10° WNW 20:45:33 41° SW 20:49:50 15° SSE
Yuri Rocket 3.0 20:41:12 10° WSW 20:45:38 58° S 20:46:35 45° ESE
Lacrosse 5 3.7 20:45:32 10° WNW 20:49:50 28° WSW 20:54:07 10° S
Cosmos 1356 Rocket 3.3 20:50:11 10° N 20:54:30 81° E 20:56:22 33° SSE
SJ-6B 3.3 20:51:29 10° S 20:55:29 61° W 20:59:26 10° NNW
GEOS 3 Rocket 3.5 20:56:27 10° NE 21:01:50 74° ESE 21:07:11 10° SSW
Meteor 1-24 Rocket 3.7 20:59:28 10° N 21:05:26 88° E 21:09:36 20° S
Cosmos 1125 Rocket 4.2 21:03:57 10° N 21:07:53 36° NE 21:07:53 36° NE
GPS 2-04 Rocket1 4.4 21:06:44 10° W 21:10:19 26° SSW 21:10:54 25° SSW
Envisat 3.1 21:11:57 57° NE 21:11:57 57° NE 21:16:31 10° N
Cosmos 1943 Rocket 4.1 21:12:54 10° NW 21:17:34 28° WSW 21:22:17 10° SSW
Centaur AC-112 4.3 21:14:15 10° SW 21:17:09 20° SSW 21:17:09 20° SSW
Cosmos 2154 Rocket 3.9 21:13:20 10° S 21:19:32 89° W 21:25:48 10° N
Resurs 1-3 4.0 21:23:04 56° NNW 21:23:04 56° NNW 21:26:35 10° NNW
ISS -1.0 21:24:32 10° WSW 21:25:18 16° WSW 21:25:18 16° WSW
Cosmos 2341 Rocket 3.8 21:28:54 73° ENE 21:28:54 73° ENE 21:34:49 10° N
Resurs 01 Rocket 2.9 21:41:53 39° WNW 21:41:53 39° WNW 21:45:25 10° NNW
MOS 1-B Rocket 4.2 21:39:43 53° SSW 21:41:15 72° WSW 21:47:07 10° NNW
NOSS 3-1 (A) 4.1 21:49:31 10° NNW 21:57:31 78° WSW 21:58:20 72° SSW
Nadezhda 3 Rocket 4.4 21:52:57 10° NNW 21:58:49 60° WNW 21:58:49 60° WNW
